WAT401 KMQS-KMDT

Flight info

Callsign WAT401
Flight time N/A
Altitude 4500
Route WESTBOUND DEP THEN DCT
Aircraft R44/L-V/N

Departure

Time 2026-05-08 17:45
Airport Chester County G O Carlson Airport (KMQS)

Arrival

Time N/A
Airport Harrisburg International Airport (KMDT)
Time Latitude Longitude Altitude Speed Heading
2026-05-08 17:25 39.98002 -75.86432 639 ft 0 kts 192°
2026-05-08 17:41 39.97990 -75.86431 641 ft 2 kts 140°
2026-05-08 17:41 39.97974 -75.86409 641 ft 3 kts 110°
2026-05-08 17:41 39.97957 -75.86382 644 ft 7 kts 137°
2026-05-08 17:41 39.97924 -75.86285 645 ft 12 kts 94°
2026-05-08 17:42 39.97906 -75.86168 643 ft 11 kts 96°
2026-05-08 17:42 39.97891 -75.86065 643 ft 11 kts 97°
2026-05-08 17:42 39.97875 -75.85970 645 ft 10 kts 98°
2026-05-08 17:42 39.97862 -75.85886 645 ft 9 kts 100°
2026-05-08 17:43 39.97850 -75.85808 644 ft 6 kts 99°
2026-05-08 17:43 39.97842 -75.85752 644 ft 4 kts 98°
2026-05-08 17:43 39.97838 -75.85733 645 ft 2 kts 101°
2026-05-08 17:43 39.97804 -75.85700 646 ft 3 kts 209°
2026-05-08 17:44 39.97787 -75.85883 648 ft 49 kts 276°
2026-05-08 17:44 39.97884 -75.86443 695 ft 73 kts 279°
2026-05-08 17:44 39.97989 -75.87103 831 ft 72 kts 280°
2026-05-08 17:44 39.98092 -75.87702 1013 ft 65 kts 278°
2026-05-08 17:45 39.98109 -75.88259 1255 ft 58 kts 256°
2026-05-08 17:45 39.97923 -75.88741 1420 ft 64 kts 251°
2026-05-08 17:45 39.97742 -75.89266 1565 ft 63 kts 255°
2026-05-08 17:45 39.97613 -75.89855 1637 ft 69 kts 260°
2026-05-08 17:46 39.97529 -75.90457 1749 ft 68 kts 262°
2026-05-08 17:46 39.97482 -75.91077 1808 ft 71 kts 268°
2026-05-08 17:46 39.97501 -75.91750 1855 ft 76 kts 271°
2026-05-08 17:46 39.97537 -75.92442 1888 ft 77 kts 273°
2026-05-08 17:47 39.97639 -75.93142 1876 ft 80 kts 276°
2026-05-08 17:47 39.97766 -75.93847 1930 ft 77 kts 278°
2026-05-08 17:47 39.97911 -75.94528 1971 ft 79 kts 281°
2026-05-08 17:47 39.98017 -75.94989 2006 ft 79 kts 281°
2026-05-08 17:48 39.98164 -75.95918 2046 ft 79 kts 276°
2026-05-08 17:48 39.98276 -75.96635 2051 ft 80 kts 278°
2026-05-08 17:48 39.98388 -75.97356 2060 ft 82 kts 275°
2026-05-08 17:48 39.98497 -75.98098 2072 ft 83 kts 277°
2026-05-08 17:49 39.98627 -75.98834 2051 ft 84 kts 277°
2026-05-08 17:49 39.98744 -75.99571 2041 ft 83 kts 277°
2026-05-08 17:49 39.98889 -76.00311 2031 ft 83 kts 280°
2026-05-08 17:49 39.99038 -76.01049 2010 ft 84 kts 277°
2026-05-08 17:50 39.99147 -76.01749 2093 ft 74 kts 276°
2026-05-08 17:50 39.99257 -76.02420 2130 ft 77 kts 276°
2026-05-08 17:50 39.99359 -76.03124 2133 ft 81 kts 277°
2026-05-08 17:50 39.99461 -76.03815 2202 ft 76 kts 277°
2026-05-08 17:51 39.99571 -76.04508 2202 ft 79 kts 277°
2026-05-08 17:51 39.99668 -76.05217 2222 ft 78 kts 274°
2026-05-08 17:51 39.99755 -76.05939 2206 ft 82 kts 276°
2026-05-08 17:51 39.99839 -76.06686 2170 ft 84 kts 273°
2026-05-08 17:52 39.99912 -76.07417 2261 ft 75 kts 274°
2026-05-08 17:52 39.99985 -76.08045 2451 ft 67 kts 276°
2026-05-08 17:52 40.00226 -76.09367 2560 ft 79 kts 283°
2026-05-08 17:53 40.00419 -76.10081 2497 ft 88 kts 282°
2026-05-08 17:53 40.00610 -76.10843 2479 ft 88 kts 282°
2026-05-08 17:53 40.00793 -76.11591 2512 ft 83 kts 281°
2026-05-08 17:53 40.00954 -76.12291 2592 ft 79 kts 281°
2026-05-08 17:54 40.01136 -76.13011 2500 ft 88 kts 281°
2026-05-08 17:54 40.01303 -76.13774 2468 ft 86 kts 280°
2026-05-08 17:54 40.01439 -76.14515 2485 ft 84 kts 278°
2026-05-08 17:54 40.01577 -76.15253 2533 ft 80 kts 279°
2026-05-08 17:55 40.01738 -76.15963 2516 ft 83 kts 282°
2026-05-08 17:55 40.01929 -76.16687 2496 ft 85 kts 282°
2026-05-08 17:55 40.02118 -76.17426 2494 ft 87 kts 282°
2026-05-08 17:55 40.02277 -76.18200 2463 ft 87 kts 277°